{"data":{"norad_id":66749,"epoch":"2026-05-25T02:34:08.643072Z","epoch_age_seconds":62806,"freshness":"FRESH","line1":"1 66749U 25276CM  26145.10704448  .00004932  00000+0  23224-3 0  9993","line2":"2 66749  97.4195 219.1367 0003715  69.2776 290.8857 15.19982862 26920","mean_motion":15.19982862,"eccentricity":0.0003715,"inclination_deg":97.4195,"raan_deg":219.1367,"arg_perigee_deg":69.2776,"mean_anomaly_deg":290.8857,"bstar":0.00023224,"rev_number":2692,"period_min":94.737910275202,"perigee_km":503.33494188647,"apogee_km":508.44977570005,"semimajor_km":6884.0293587933,"source":"CELESTRAK","updated_at":"2026-05-25T13:38:06.450941Z"}}